Flag for Malaysia Weather past 2 weeks in Kuala Lumpur, Malaysia

86 °F

Thunderstorms. Broken clouds.

Feels Like: 95 °F
Forecast: 73 / 87 °F
Wind: 6 mph from North

Location: Sultan Abdul Aziz Shah-Subang

Current Time: Nov 27, 2015 at 4:35:00 PM

Latest Report: Nov 27, 2015 at 4:00 PM

Visibility: N/A

Pressure: 29.74 "Hg

Humidity: 70%

Dew point: 75 °F

Location of Kuala LumpurLocation

Historic Weather in Kuala Lumpur — Graph


Kuala Lumpur temperature yesterday

Maximum temperature yesterday: 91 °F (at 2:00 PM)
Minimum temperature yesterday: 75 °F (at 5:00 PM)
Average temperature yesterday: 80 °F

Past Weeks' High & Low Weather Summary

High95 °F (Nov 12, 4:00 PM)100% (Nov 14, 6:00 AM)29.92 "Hg (Nov 14, 6:00 AM)
Low73 °F (Nov 27, 6:00 AM)53% (Nov 18, 2:00 PM)29.68 "Hg (Nov 14, 4:00 PM)
Average81 °F88%29.81 "Hg
* Reported Nov 12 3:00 PM — Nov 27 3:00 PM, Kuala Lumpur, Weather by CustomWeather, © 2015

Note: Actual official high and low records may vary slightly from our data, if they occured in-between our weather recording intervals... More about our weather records


Kuala Lumpur weather history for previous 24 hours

Time TempWeatherWind HumidityBarometerVisibility
3:00 PM
Fri, Nov 27
88 °FBroken clouds.6 mph62%29.77 "HgN/A
2:00 PM88 °FBroken clouds.5 mph62%29.77 "HgN/A
1:00 PM88 °FBroken clouds.3 mph62%29.80 "HgN/A
12:00 PM88 °FBroken clouds.3 mph66%29.83 "HgN/A
11:00 AM84 °FBroken clouds.1 mph74%29.83 "HgN/A
10:00 AM81 °FBroken clouds.No wind84%29.83 "HgN/A
9:00 AM77 °FBroken clouds.1 mph89%29.83 "HgN/A
8:00 AM75 °FPartly cloudy.1 mph94%29.80 "HgN/A
7:00 AM73 °FPartly cloudy.No wind100%29.80 "Hg5 mi
6:00 AM73 °FPassing clouds.1 mph100%29.80 "Hg5 mi
5:00 AM75 °FPartly cloudy.No wind94%29.77 "Hg4 mi
4:00 AM75 °FPartly cloudy.2 mph94%29.80 "Hg4 mi
3:00 AM75 °FPartly cloudy.3 mph100%29.80 "Hg4 mi
2:00 AM75 °FPartly cloudy.No wind100%29.83 "Hg4 mi
1:00 AM77 °FPartly cloudy.1 mph94%29.83 "Hg4 mi
12:00 AM77 °FPartly cloudy.2 mph94%29.83 "Hg4 mi
11:00 PM
Thu, Nov 26
77 °FLight rain. Partly cloudy.3 mph94%29.83 "Hg4 mi
10:00 PM77 °FLight rain. Partly cloudy.2 mph94%29.83 "Hg4 mi
9:00 PM77 °FLight rain. Partly cloudy.2 mph94%29.80 "Hg3 mi
8:00 PM75 °FLight rain. Mostly cloudy.2 mph100%29.83 "Hg3 mi
7:00 PM75 °FThunderstorms. More clouds than sun.2 mph94%29.80 "Hg4 mi
6:00 PM75 °FThunderstorms. More clouds than sun.5 mph94%29.80 "Hg4 mi
5:00 PM75 °FThunderstorms. More clouds than sun.5 mph94%29.74 "Hg4 mi
4:00 PM79 °FThunderstorms. More clouds than sun.5 mph94%29.74 "Hg4 mi
Weather by CustomWeather, © 2015

See weather overviewHow to use our weather pages